User: anonymous   Login
Location: Three Oaks Observatory
(31.1535°N, 83.5955°W)
Time: 04:54:07
(UTC-04:00)
Language:

ISS - Orbit

View from above orbital plane
View from above orbital plane
View from above satellite
View from above satellite

Ground track
Ground track

The orbit data is extracted from the following two-line orbital elements,

1 25544U 98067A   19081.57410730  .00016717  00000-0  10270-3 0  9025
2 25544  51.6375  71.8068 0003587 128.1084 232.0392 15.52839259  1793
Epoch (UTC): 22 March 2019 13:46:42
Eccentricity: 0.0003587
inclination: 51.6375°
perigee height: 406 km
apogee height: 411 km
right ascension of ascending node: 71.8068°
argument of perigee: 128.1084°
revolutions per day: 15.52839259
mean anomaly at epoch: 232.0392°
orbit number at epoch: 179

The dashed part of the orbit path shows where the satellite is in the earth's shadow,  

DLR